This is the latest recevied weather packets stored in our database for station/object W4UWO. If no packets are shown the sender has not sent any weather packets the latest 10 day(s).
| Time | Temp. | Humidity | Pressure | Rain* | Wind** | Luminosity | Snow |
|---|---|---|---|---|---|---|---|
| 1788631329 | 37.22° C | 42% | 1014.4 hPa | 0 mm | - | 829 W/m² | - |
| 1788631029 | 37.22° C | 42% | 1014.6 hPa | 0 mm | - | 824 W/m² | - |
| 1788630723 | 36.67° C | 42% | 1014.7 hPa | 0 mm | - | 829 W/m² | - |
| 1788630419 | 37.22° C | 44% | 1014.7 hPa | 0 mm | - | 847 W/m² | - |
| 1788630114 | 37.22° C | 45% | 1014.8 hPa | 0 mm | - | 829 W/m² | - |
| 1788629810 | 36.67° C | 46% | 1015 hPa | 0 mm | - | 839 W/m² | - |
| 1788629506 | 36.11° C | 51% | 1014.9 hPa | 0 mm | - | 836 W/m² | - |
| 1788629205 | 36.11° C | 49% | 1014.9 hPa | 0 mm | - | 821 W/m² | - |
| 1788628899 | 36.11° C | 48% | 1015 hPa | 0 mm | - | 806 W/m² | - |
| 1788628596 | 36.67° C | 48% | 1015 hPa | 0 mm | - | 793 W/m² | - |
| 1788628291 | 36.11° C | 50% | 1015.3 hPa | 0 mm | - | 787 W/m² | - |
| 1788627988 | 35° C | 53% | 1015.1 hPa | 0 mm | - | 780 W/m² | - |
| 1788627683 | 35.56° C | 52% | 1015.2 hPa | 0 mm | - | 775 W/m² | - |
| 1788627377 | 35° C | 52% | 1015.3 hPa | 0 mm | - | 774 W/m² | - |
| 1788627073 | 35° C | 52% | 1015.2 hPa | 0 mm | - | 769 W/m² | - |
| 1788626768 | 35.56° C | 51% | 1015.4 hPa | 0 mm | - | 764 W/m² | - |
| 1788626467 | 35.56° C | 52% | 1015.5 hPa | 0 mm | - | 758 W/m² | - |
| 1788626163 | 35° C | 54% | 1015.4 hPa | 0 mm | - | 744 W/m² | - |
| 1788625860 | 34.44° C | 53% | 1015.6 hPa | 0 mm | - | 738 W/m² | - |
| 1788625555 | 33.89° C | 55% | 1015.6 hPa | 0 mm | - | 732 W/m² | - |
| 1788625254 | 34.44° C | 54% | 1015.7 hPa | 0 mm | - | 723 W/m² | - |
| 1788624949 | 33.89° C | 54% | 1015.6 hPa | 0 mm | - | 714 W/m² | - |
| 1788624647 | 33.89° C | 54% | 1015.8 hPa | 0 mm | - | 705 W/m² | - |
| 1788624346 | 33.89° C | 58% | 1015.8 hPa | 0 mm | - | 691 W/m² | - |
| 1788624046 | 33.89° C | 55% | 1016 hPa | 0 mm | - | 679 W/m² | - |
* Rain latest hour (hover to see other rain measurements)
** Current wind speed in m/s (hover to see current wind gust speed)